QPF
0.03 0.03 0.06 0.05 0.03 0.03 0.02 0.03 0.03 0.03 0.02 0.03 0.04 0.03 0.02 0.04 0.08 0.10 0.11 0.08 0.06 0.06 0.06 0.06 0.04 0.04 0.05 0.06 0.08 0.09 0.10 0.10 0.12 0.11 0.10 0.10 0.08 0.07 0.07 0.08 0.08 0.05 0.07
0.01 0.02 0.04 0.04 0.06 0.06 0.05 0.04 0.05 0.05 0.03 0.03 0.04 0.04 0.02 0.02 0.05 0.05 0.06 0.08 0.06 0.05 0.06 0.06 0.05 0.05 0.07 0.09 0.08 0.08 0.08 0.07 0.07 0.09 0.10 0.10 0.08 0.07 0.08 0.09 0.08 0.05 0.06
0.01 0.01 0.04 0.05 0.07 0.07 0.13 0.13 0.06 0.04 0.03 0.03 0.05 0.05 0.03 0.04 0.04 0.03 0.04 0.07 0.08 0.07 0.07 0.07 0.05 0.06 0.06 0.08 0.09 0.06 0.07 0.07 0.07 0.07 0.07 0.06 0.05 0.07 0.07 0.07 0.07 0.07 0.07
0.01 0.02 0.05 0.04 0.04 0.05 0.08 0.08 0.04 0.03 0.03 0.04 0.04 0.04 0.04 0.04 0.05 0.03 0.04 0.06 0.07 0.06 0.05 0.05 0.05 0.05 0.05 0.07 0.07 0.06 0.06 0.07 0.09 0.07 0.05 0.07 0.06 0.07 0.07 0.06 0.06 0.07 0.08
0.02 0.03 0.05 0.04 0.03 0.04 0.04 0.05 0.03 0.02 0.03 0.04 0.05 0.05 0.04 0.04 0.05 0.04 0.03 0.05 0.05 0.05 0.06 0.05 0.04 0.04 0.06 0.07 0.07 0.08 0.09 0.10 0.08 0.06 0.04 0.04 0.06 0.09 0.09 0.09 0.06 0.06 0.08
0.01 0.02 0.04 0.05 0.03 0.02 0.03 0.04 0.03 0.02 0.04 0.04 0.04 0.04 0.04 0.04 0.05 0.05 0.04 0.04 0.04 0.09 0.08 0.05 0.05 0.05 0.06 0.08 0.08 0.08 0.10 0.12 0.09 0.06 0.04 0.04 0.08 0.11 0.09 0.06 0.05 0.08 0.07
0.02 0.02 0.03 0.04 0.02 0.01 0.01 0.02 0.03 0.03 0.04 0.04 0.04 0.05 0.04 0.05 0.04 0.04 0.04 0.04 0.05 0.14 0.16 0.11 0.07 0.05 0.05 0.09 0.09 0.09 0.09 0.07 0.08 0.07 0.06 0.07 0.09 0.08 0.06 0.06 0.06 0.08 0.07
0.01 0.02 0.03 0.02 0.02 0.01 0.01 0.02 0.02 0.03 0.03 0.03 0.05 0.05 0.05 0.05 0.04 0.04 0.05 0.06 0.08 0.16 0.22 0.19 0.09 0.05 0.05 0.08 0.11 0.11 0.09 0.05 0.05 0.06 0.07 0.09 0.10 0.08 0.06 0.05 0.05 0.06 0.06
0.01 0.01 0.01 0.01 0.01 0.01 0.01 0.02 0.02 0.03 0.04 0.04 0.05 0.05 0.04 0.05 0.05 0.04 0.04 0.05 0.07 0.12 0.19 0.18 0.11 0.08 0.07 0.10 0.16 0.14 0.10 0.06 0.04 0.06 0.05 0.07 0.10 0.10 0.07 0.05 0.03 0.04 0.04
0.02 0.00 0.01 0.01 0.01 0.01 0.02 0.03 0.04 0.04 0.06 0.05 0.05 0.05 0.06 0.06 0.05 0.05 0.03 0.03 0.04 0.06 0.11 0.13 0.12 0.10 0.09 0.16 0.20 0.17 0.11 0.07 0.07 0.07 0.06 0.09 0.11 0.09 0.06 0.05 0.05 0.04 0.04
0.01 0.01 0.01 0.00 0.00 0.00 0.00 0.01 0.03 0.06 0.05 0.04 0.03 0.03 0.04 0.03 0.03 0.03 0.03 0.04 0.03 0.04 0.07 0.09 0.09 0.08 0.07 0.12 0.14 0.11 0.09 0.07 0.07 0.05 0.07 0.11 0.10 0.07 0.07 0.07 0.06 0.05 0.05
0.01 0.01 0.01 0.01 0.01 0.01 0.00 0.00 0.00 0.01 0.01 0.01 0.01 0.01 0.01 0.01 0.02 0.02 0.03 0.04 0.04 0.04 0.04 0.05 0.05 0.04 0.02 0.03 0.05 0.06 0.06 0.05 0.05 0.05 0.08 0.11 0.10 0.08 0.06 0.05 0.06 0.08 0.08
0.03 0.03 0.02 0.03 0.02 0.01 0.00 0.00 0.00 0.01 0.01 0.01 0.01 0.01 0.01 0.01 0.01 0.02 0.02 0.02 0.02 0.02 0.02 0.02 0.03 0.03 0.01 0.01 0.02 0.04 0.06 0.04 0.04 0.05 0.07 0.10 0.10 0.07 0.05 0.05 0.05 0.08 0.09
0.01 0.01 0.01 0.02 0.01 0.00 0.00 0.00 0.01 0.01 0.01 0.01 0.00 0.01 0.00 0.00 0.01 0.02 0.02 0.01 0.01 0.02 0.02 0.01 0.02 0.02 0.01 0.01 0.02 0.03 0.04 0.04 0.04 0.05 0.06 0.07 0.07 0.07 0.06 0.06 0.06 0.06 0.07
0.01 0.01 0.01 0.01 0.01 0.01 0.01 0.01 0.01 0.01 0.01 0.01 0.00 0.01 0.01 0.01 0.01 0.02 0.04 0.02 0.01 0.02 0.02 0.01 0.01 0.01 0.01 0.01 0.01 0.02 0.03 0.04 0.04 0.05 0.06 0.07 0.06 0.06 0.07 0.07 0.06 0.06 0.06
0.01 0.01 0.02 0.01 0.01 0.01 0.01 0.01 0.01 0.02 0.01 0.01 0.01 0.01 0.01 0.01 0.01 0.02 0.04 0.04 0.02 0.01 0.01 0.01 0.01 0.00 0.00 0.01 0.01 0.01 0.02 0.03 0.05 0.05 0.06 0.06 0.06 0.05 0.07 0.08 0.06 0.06 0.06
0.01 0.01 0.01 0.01 0.01 0.01 0.01 0.01 0.01 0.01 0.01 0.01 0.01 0.01 0.01 0.01 0.01 0.01 0.03 0.03 0.02 0.01 0.01 0.01 0.01 0.00 0.01 0.01 0.01 0.01 0.01 0.02 0.04 0.03 0.03 0.04 0.04 0.04 0.05 0.05 0.06 0.06 0.07
0.02 0.02 0.01 0.01 0.01 0.01 0.02 0.01 0.00 0.00 0.00 0.00 0.00 0.00 0.00 0.01 0.01 0.01 0.02 0.02 0.02 0.02 0.02 0.01 0.01 0.01 0.01 0.01 0.02 0.02 0.02 0.01 0.01 0.02 0.03 0.03 0.03 0.03 0.02 0.02 0.03 0.05 0.07
0.02 0.01 0.01 0.01 0.01 0.00 0.01 0.01 0.00 0.00 0.00 0.00 0.00 0.00 0.00 0.01 0.01 0.01 0.01 0.03 0.03 0.03 0.03 0.02 0.02 0.02 0.01 0.01 0.01 0.02 0.02 0.01 0.01 0.02 0.02 0.01 0.02 0.02 0.01 0.01 0.02 0.04 0.06
0.02 0.01 0.01 0.00 0.00 0.00 0.00 0.00 0.00 0.00 0.00 0.00 0.00 0.00 0.01 0.01 0.01 0.01 0.01 0.03 0.03 0.03 0.03 0.03 0.03 0.02 0.02 0.01 0.01 0.01 0.01 0.01 0.01 0.02 0.01 0.01 0.03 0.02 0.01 0.01 0.02 0.05 0.06
0.02 0.01 0.01 0.00 0.00 0.00 0.00 0.00 0.00 0.00 0.00 0.00 0.00 0.00 0.00 0.01 0.01 0.01 0.01 0.01 0.02 0.02 0.03 0.04 0.04 0.03 0.02 0.01 0.01 0.01 0.01 0.01 0.01 0.01 0.01 0.01 0.03 0.03 0.03 0.02 0.03 0.07 0.06
0.01 0.01 0.01 0.00 0.00 0.00 0.00 0.00 0.00 0.00 0.00 0.00 0.00 0.00 0.00 0.01 0.01 0.01 0.01 0.01 0.02 0.02 0.02 0.03 0.04 0.06 0.05 0.04 0.02 0.01 0.01 0.01 0.01 0.01 0.01 0.01 0.02 0.02 0.01 0.02 0.04 0.08 0.07
0.01 0.00 0.01 0.01 0.01 0.00 0.00 0.00 0.00 0.00 0.00 0.00 0.00 0.00 0.00 0.00 0.01 0.01 0.01 0.01 0.02 0.02 0.02 0.02 0.02 0.04 0.07 0.08 0.06 0.03 0.01 0.01 0.01 0.01 0.01 0.00 0.00 0.01 0.02 0.04 0.05 0.06 0.06
0.01 0.01 0.01 0.01 0.01 0.00 0.00 0.00 0.00 0.00 0.00 0.00 0.00 0.00 0.00 0.00 0.00 0.01 0.01 0.01 0.02 0.02 0.02 0.01 0.01 0.01 0.03 0.05 0.07 0.07 0.03 0.01 0.01 0.01 0.01 0.00 0.00 0.00 0.01 0.02 0.03 0.07 0.07
0.01 0.01 0.01 0.01 0.01 0.00 0.00 0.00 0.00 0.00 0.00 0.00 0.00 0.00 0.00 0.00 0.01 0.01 0.01 0.02 0.02 0.03 0.03 0.02 0.01 0.01 0.01 0.02 0.03 0.04 0.05 0.03 0.02 0.01 0.01 0.01 0.00 0.00 0.00 0.01 0.01 0.03 0.05
0.01 0.01 0.01 0.01 0.01 0.00 0.00 0.00 0.00 0.00 0.00 0.00 0.00 0.01 0.01 0.01 0.02 0.01 0.02 0.02 0.02 0.03 0.03 0.02 0.01 0.01 0.01 0.01 0.01 0.02 0.03 0.03 0.03 0.02 0.01 0.00 0.00 0.00 0.00 0.00 0.00 0.01 0.02
MSLP
1013.82 1013.11 1012.55 1012.20 1012.05 1012.04 1012.10 1012.14 1012.10 1011.93 1011.64 1011.28 1010.92 1010.62 1010.43 1010.36 1010.41 1010.54 1010.69 1010.82 1010.90 1010.93 1010.91 1010.88 1010.87 1010.91 1011.01 1011.17 1011.37 1011.59 1011.81 1012.01 1012.17 1012.29 1012.39 1012.47 1012.55 1012.62 1012.70 1012.78 1012.85 1012.91 1012.95
1013.36 1012.73 1012.27 1012.02 1011.95 1012.01 1012.10 1012.15 1012.08 1011.88 1011.55 1011.17 1010.79 1010.50 1010.33 1010.29 1010.38 1010.53 1010.69 1010.82 1010.88 1010.86 1010.81 1010.74 1010.70 1010.72 1010.81 1010.97 1011.18 1011.41 1011.64 1011.84 1012.00 1012.12 1012.23 1012.32 1012.41 1012.51 1012.62 1012.72 1012.82 1012.90 1012.96
1012.80 1012.28 1011.94 1011.80 1011.82 1011.94 1012.06 1012.12 1012.03 1011.80 1011.46 1011.05 1010.68 1010.39 1010.24 1010.22 1010.32 1010.47 1010.61 1010.71 1010.73 1010.68 1010.59 1010.50 1010.46 1010.48 1010.59 1010.77 1011.00 1011.25 1011.48 1011.69 1011.86 1012.00 1012.11 1012.21 1012.32 1012.44 1012.56 1012.69 1012.80 1012.90 1012.96
1012.21 1011.82 1011.59 1011.56 1011.66 1011.84 1012.00 1012.05 1011.96 1011.71 1011.34 1010.93 1010.56 1010.28 1010.14 1010.12 1010.21 1010.33 1010.44 1010.50 1010.48 1010.40 1010.29 1010.21 1010.18 1010.24 1010.38 1010.60 1010.86 1011.14 1011.39 1011.61 1011.79 1011.94 1012.06 1012.17 1012.30 1012.42 1012.56 1012.68 1012.80 1012.89 1012.97
1011.68 1011.39 1011.28 1011.34 1011.53 1011.75 1011.92 1011.97 1011.86 1011.59 1011.21 1010.79 1010.43 1010.16 1010.02 1010.00 1010.06 1010.14 1010.21 1010.21 1010.16 1010.06 1009.96 1009.91 1009.92 1010.04 1010.24 1010.51 1010.81 1011.11 1011.37 1011.60 1011.79 1011.94 1012.07 1012.20 1012.33 1012.46 1012.59 1012.71 1012.82 1012.91 1012.98
1011.27 1011.08 1011.06 1011.21 1011.45 1011.69 1011.86 1011.88 1011.74 1011.44 1011.05 1010.64 1010.29 1010.03 1009.90 1009.86 1009.89 1009.94 1009.95 1009.91 1009.83 1009.73 1009.66 1009.65 1009.74 1009.92 1010.18 1010.50 1010.83 1011.14 1011.41 1011.63 1011.81 1011.97 1012.11 1012.25 1012.39 1012.52 1012.65 1012.76 1012.85 1012.92 1012.99
1011.05 1010.93 1010.98 1011.17 1011.44 1011.68 1011.81 1011.79 1011.61 1011.29 1010.89 1010.49 1010.16 1009.93 1009.80 1009.76 1009.76 1009.76 1009.73 1009.65 1009.56 1009.48 1009.45 1009.50 1009.66 1009.91 1010.23 1010.57 1010.91 1011.21 1011.45 1011.65 1011.81 1011.96 1012.11 1012.27 1012.42 1012.57 1012.70 1012.80 1012.88 1012.94 1013.01
1011.01 1010.94 1011.04 1011.26 1011.51 1011.72 1011.81 1011.73 1011.50 1011.15 1010.76 1010.38 1010.08 1009.87 1009.77 1009.73 1009.71 1009.68 1009.60 1009.50 1009.40 1009.34 1009.36 1009.47 1009.69 1010.00 1010.35 1010.70 1011.01 1011.27 1011.46 1011.61 1011.75 1011.89 1012.04 1012.22 1012.40 1012.57 1012.71 1012.82 1012.90 1012.96 1013.03
1011.12 1011.09 1011.21 1011.44 1011.67 1011.82 1011.84 1011.71 1011.43 1011.06 1010.66 1010.32 1010.06 1009.91 1009.83 1009.80 1009.77 1009.71 1009.61 1009.49 1009.39 1009.35 1009.41 1009.58 1009.85 1010.18 1010.54 1010.86 1011.12 1011.30 1011.42 1011.51 1011.60 1011.72 1011.88 1012.08 1012.30 1012.51 1012.69 1012.82 1012.91 1012.97 1013.05
1011.32 1011.32 1011.46 1011.68 1011.87 1011.96 1011.91 1011.71 1011.39 1011.01 1010.64 1010.34 1010.14 1010.04 1010.00 1009.99 1009.96 1009.88 1009.76 1009.62 1009.52 1009.50 1009.59 1009.79 1010.09 1010.44 1010.78 1011.05 1011.23 1011.32 1011.35 1011.36 1011.39 1011.49 1011.66 1011.89 1012.16 1012.42 1012.64 1012.80 1012.91 1013.00 1013.09
1011.55 1011.58 1011.74 1011.93 1012.08 1012.12 1012.00 1011.75 1011.39 1011.01 1010.68 1010.43 1010.30 1010.26 1010.27 1010.28 1010.25 1010.16 1010.02 1009.87 1009.77 1009.76 1009.88 1010.11 1010.42 1010.76 1011.06 1011.27 1011.37 1011.37 1011.30 1011.23 1011.21 1011.28 1011.45 1011.72 1012.02 1012.33 1012.59 1012.79 1012.93 1013.04 1013.14
1011.75 1011.82 1011.99 1012.17 1012.27 1012.25 1012.09 1011.79 1011.43 1011.06 1010.77 1010.59 1010.52 1010.54 1010.59 1010.63 1010.61 1010.51 1010.36 1010.20 1010.11 1010.11 1010.25 1010.50 1010.82 1011.15 1011.41 1011.57 1011.59 1011.49 1011.34 1011.20 1011.13 1011.17 1011.35 1011.62 1011.96 1012.30 1012.60 1012.83 1013.00 1013.11 1013.22
1011.91 1012.01 1012.18 1012.34 1012.42 1012.36 1012.15 1011.84 1011.48 1011.14 1010.90 1010.78 1010.77 1010.84 1010.94 1011.00 1010.98 1010.88 1010.73 1010.58 1010.49 1010.52 1010.68 1010.95 1011.28 1011.60 1011.84 1011.95 1011.92 1011.76 1011.55 1011.35 1011.24 1011.26 1011.42 1011.70 1012.04 1012.39 1012.70 1012.94 1013.11 1013.23 1013.33
1012.01 1012.14 1012.31 1012.46 1012.50 1012.42 1012.20 1011.88 1011.54 1011.24 1011.05 1010.98 1011.03 1011.14 1011.26 1011.33 1011.32 1011.23 1011.09 1010.96 1010.90 1010.96 1011.15 1011.45 1011.80 1012.13 1012.36 1012.45 1012.39 1012.20 1011.96 1011.73 1011.59 1011.58 1011.72 1011.97 1012.29 1012.62 1012.91 1013.12 1013.27 1013.37 1013.46
1012.09 1012.22 1012.38 1012.51 1012.54 1012.44 1012.22 1011.92 1011.62 1011.36 1011.22 1011.19 1011.27 1011.41 1011.54 1011.62 1011.62 1011.54 1011.42 1011.32 1011.30 1011.41 1011.64 1011.98 1012.36 1012.70 1012.95 1013.05 1012.99 1012.81 1012.56 1012.33 1012.17 1012.14 1012.24 1012.45 1012.72 1012.98 1013.22 1013.38 1013.49 1013.55 1013.61
1012.16 1012.28 1012.42 1012.53 1012.54 1012.45 1012.25 1011.99 1011.73 1011.52 1011.42 1011.42 1011.51 1011.65 1011.77 1011.85 1011.86 1011.80 1011.72 1011.67 1011.70 1011.86 1012.14 1012.52 1012.93 1013.30 1013.57 1013.70 1013.67 1013.52 1013.30 1013.08 1012.93 1012.88 1012.94 1013.08 1013.27 1013.46 1013.60 1013.69 1013.73 1013.75 1013.77
1012.25 1012.34 1012.45 1012.53 1012.54 1012.46 1012.30 1012.10 1011.90 1011.74 1011.67 1011.68 1011.77 1011.88 1011.99 1012.05 1012.06 1012.03 1011.99 1012.00 1012.09 1012.31 1012.64 1013.05 1013.48 1013.88 1014.17 1014.33 1014.34 1014.24 1014.07 1013.89 1013.76 1013.69 1013.71 1013.79 1013.89 1013.98 1014.02 1014.03 1014.00 1013.96 1013.93
1012.38 1012.42 1012.49 1012.56 1012.57 1012.52 1012.41 1012.28 1012.14 1012.04 1011.99 1012.01 1012.06 1012.14 1012.21 1012.26 1012.26 1012.25 1012.26 1012.33 1012.48 1012.75 1013.12 1013.55 1013.99 1014.39 1014.70 1014.88 1014.93 1014.88 1014.77 1014.64 1014.54 1014.48 1014.47 1014.48 1014.50 1014.49 1014.44 1014.36 1014.25 1014.16 1014.11
1012.56 1012.55 1012.57 1012.61 1012.64 1012.63 1012.59 1012.53 1012.47 1012.42 1012.40 1012.40 1012.43 1012.46 1012.48 1012.49 1012.49 1012.51 1012.56 1012.68 1012.88 1013.18 1013.57 1014.00 1014.43 1014.81 1015.10 1015.29 1015.38 1015.38 1015.32 1015.25 1015.19 1015.15 1015.12 1015.09 1015.03 1014.94 1014.81 1014.65 1014.50 1014.37 1014.29
1012.77 1012.71 1012.69 1012.71 1012.75 1012.79 1012.83 1012.85 1012.87 1012.87 1012.87 1012.87 1012.85 1012.83 1012.80 1012.78 1012.77 1012.80 1012.88 1013.04 1013.29 1013.61 1013.98 1014.39 1014.77 1015.11 1015.37 1015.55 1015.65 1015.68 1015.68 1015.67 1015.66 1015.64 1015.61 1015.55 1015.45 1015.29 1015.10 1014.90 1014.71 1014.56 1014.48
1013.02 1012.91 1012.85 1012.85 1012.90 1012.99 1013.10 1013.21 1013.30 1013.36 1013.38 1013.36 1013.31 1013.24 1013.17 1013.11 1013.09 1013.12 1013.23 1013.42 1013.69 1014.01 1014.36 1014.72 1015.04 1015.31 1015.52 1015.66 1015.75 1015.81 1015.86 1015.90 1015.93 1015.95 1015.93 1015.86 1015.73 1015.54 1015.32 1015.09 1014.88 1014.73 1014.65
1013.29 1013.13 1013.04 1013.01 1013.07 1013.20 1013.37 1013.55 1013.70 1013.81 1013.86 1013.84 1013.76 1013.65 1013.53 1013.45 1013.41 1013.46 1013.59 1013.80 1014.07 1014.38 1014.69 1014.99 1015.24 1015.43 1015.57 1015.66 1015.74 1015.81 1015.88 1015.97 1016.04 1016.09 1016.10 1016.03 1015.89 1015.69 1015.45 1015.20 1015.00 1014.86 1014.79
1013.56 1013.37 1013.23 1013.18 1013.23 1013.37 1013.58 1013.81 1014.03 1014.18 1014.25 1014.23 1014.13 1013.99 1013.85 1013.75 1013.71 1013.76 1013.90 1014.13 1014.40 1014.69 1014.97 1015.20 1015.37 1015.49 1015.56 1015.61 1015.66 1015.72 1015.82 1015.93 1016.04 1016.12 1016.14 1016.08 1015.94 1015.73 1015.48 1015.24 1015.04 1014.91 1014.87
1013.80 1013.59 1013.42 1013.33 1013.36 1013.49 1013.71 1013.97 1014.21 1014.40 1014.48 1014.47 1014.37 1014.22 1014.07 1013.96 1013.92 1013.98 1014.14 1014.37 1014.64 1014.92 1015.16 1015.34 1015.45 1015.51 1015.52 1015.53 1015.55 1015.61 1015.71 1015.84 1015.97 1016.06 1016.09 1016.04 1015.90 1015.68 1015.43 1015.19 1014.99 1014.88 1014.85
1014.02 1013.78 1013.57 1013.44 1013.43 1013.54 1013.74 1014.00 1014.25 1014.45 1014.55 1014.55 1014.45 1014.31 1014.16 1014.05 1014.02 1014.09 1014.26 1014.50 1014.76 1015.02 1015.24 1015.39 1015.46 1015.48 1015.46 1015.44 1015.44 1015.50 1015.60 1015.72 1015.86 1015.95 1015.98 1015.92 1015.77 1015.55 1015.30 1015.05 1014.86 1014.75 1014.73
1014.17 1013.93 1013.68 1013.51 1013.44 1013.51 1013.68 1013.92 1014.16 1014.35 1014.46 1014.46 1014.38 1014.25 1014.11 1014.01 1013.99 1014.07 1014.24 1014.48 1014.74 1014.99 1015.20 1015.33 1015.39 1015.38 1015.35 1015.32 1015.32 1015.36 1015.45 1015.58 1015.70 1015.78 1015.79 1015.72 1015.56 1015.34 1015.08 1014.84 1014.64 1014.53 1014.51
Thickness
5757 5761 5762 5763 5763 5763 5764 5764 5764 5764 5765 5765 5766 5767 5767 5768 5768 5768 5768 5768 5768 5768 5768 5768 5769 5769 5770 5770 5770 5769 5769 5769 5768 5768 5767 5767 5767 5766 5766 5766 5765 5766 5766
5759 5761 5761 5762 5762 5762 5762 5762 5762 5762 5763 5763 5763 5764 5764 5765 5765 5765 5765 5765 5765 5766 5766 5766 5766 5767 5767 5767 5767 5767 5766 5766 5766 5765 5765 5764 5764 5764 5764 5763 5763 5763 5764
5760 5760 5760 5760 5760 5759 5759 5759 5760 5760 5760 5760 5761 5761 5761 5762 5762 5762 5762 5762 5762 5763 5763 5763 5763 5763 5764 5764 5764 5764 5764 5764 5763 5762 5762 5761 5761 5761 5761 5761 5761 5761 5761
5758 5758 5758 5758 5758 5758 5757 5757 5757 5757 5757 5758 5758 5758 5759 5759 5759 5759 5759 5759 5759 5760 5760 5760 5760 5760 5761 5761 5761 5761 5761 5761 5760 5759 5758 5758 5758 5759 5758 5758 5758 5759 5759
5757 5756 5756 5756 5755 5755 5755 5755 5755 5755 5755 5755 5755 5755 5755 5755 5756 5756 5756 5756 5757 5757 5757 5757 5757 5758 5758 5758 5758 5757 5757 5757 5756 5756 5755 5755 5755 5755 5755 5755 5755 5756 5756
5755 5754 5754 5754 5753 5753 5753 5752 5753 5752 5753 5753 5753 5752 5752 5752 5753 5753 5753 5753 5754 5754 5755 5755 5754 5755 5755 5754 5754 5754 5753 5753 5752 5751 5751 5751 5751 5752 5752 5752 5752 5752 5752
5753 5752 5752 5752 5751 5751 5751 5750 5750 5750 5750 5750 5749 5749 5749 5749 5749 5750 5750 5750 5750 5751 5753 5753 5751 5752 5752 5751 5751 5750 5750 5749 5748 5747 5747 5747 5747 5748 5748 5748 5748 5748 5749
5752 5751 5750 5750 5749 5749 5748 5748 5747 5747 5747 5746 5746 5746 5746 5746 5746 5746 5746 5746 5747 5748 5750 5750 5748 5748 5748 5748 5748 5747 5746 5745 5744 5743 5743 5743 5743 5744 5744 5744 5744 5745 5745
5751 5750 5748 5747 5747 5746 5746 5745 5745 5744 5744 5743 5743 5743 5742 5742 5742 5743 5743 5743 5743 5744 5744 5743 5743 5743 5743 5744 5744 5743 5742 5740 5740 5739 5739 5739 5739 5740 5740 5740 5740 5740 5740
5749 5747 5746 5745 5744 5744 5743 5743 5742 5742 5741 5741 5740 5740 5739 5738 5738 5739 5739 5739 5739 5739 5739 5738 5738 5738 5738 5738 5738 5737 5736 5735 5734 5734 5734 5735 5735 5735 5735 5735 5735 5736 5736
5745 5744 5744 5743 5742 5741 5741 5740 5740 5739 5738 5737 5737 5736 5735 5735 5734 5735 5735 5735 5735 5735 5735 5734 5734 5733 5733 5732 5732 5731 5730 5729 5729 5730 5730 5730 5731 5731 5731 5731 5731 5731 5731
5741 5742 5742 5741 5740 5739 5739 5738 5737 5736 5735 5734 5734 5733 5732 5731 5731 5731 5731 5731 5730 5730 5730 5729 5729 5728 5728 5727 5726 5726 5725 5725 5725 5725 5726 5726 5726 5726 5726 5726 5726 5726 5726
5741 5741 5740 5740 5739 5737 5736 5735 5734 5733 5732 5731 5731 5730 5729 5728 5728 5727 5727 5726 5726 5725 5725 5724 5724 5723 5722 5722 5721 5721 5720 5720 5720 5721 5721 5722 5722 5722 5722 5721 5722 5721 5721
5740 5740 5740 5739 5737 5735 5735 5734 5732 5731 5730 5729 5728 5727 5726 5725 5724 5723 5723 5722 5721 5721 5720 5719 5719 5718 5718 5717 5716 5716 5715 5715 5715 5716 5716 5717 5717 5717 5717 5717 5717 5716 5716
5739 5739 5739 5738 5736 5734 5733 5732 5730 5729 5728 5727 5726 5725 5724 5722 5721 5720 5719 5718 5717 5717 5716 5715 5714 5714 5713 5712 5711 5711 5711 5710 5710 5711 5711 5711 5712 5712 5712 5712 5712 5712 5712
5739 5738 5738 5737 5735 5733 5731 5729 5728 5727 5726 5725 5724 5723 5721 5720 5718 5717 5715 5715 5714 5713 5712 5711 5710 5709 5708 5707 5706 5706 5705 5705 5705 5705 5705 5705 5706 5706 5706 5706 5707 5707 5707
5738 5738 5737 5736 5734 5731 5729 5728 5726 5725 5723 5722 5721 5720 5719 5717 5716 5714 5712 5711 5711 5710 5709 5707 5706 5705 5704 5703 5701 5701 5701 5700 5700 5700 5699 5699 5700 5700 5700 5700 5701 5702 5701
5738 5736 5736 5736 5731 5729 5727 5726 5724 5722 5721 5719 5718 5717 5716 5715 5713 5711 5709 5708 5707 5706 5705 5703 5702 5700 5698 5697 5696 5696 5696 5695 5695 5695 5694 5694 5694 5694 5694 5694 5695 5695 5696
5738 5735 5733 5732 5729 5727 5725 5723 5721 5719 5718 5717 5715 5714 5713 5712 5710 5708 5706 5705 5704 5702 5701 5700 5697 5696 5694 5692 5692 5691 5691 5690 5690 5690 5689 5688 5688 5688 5687 5688 5688 5689 5689
5737 5734 5732 5730 5727 5725 5722 5720 5718 5716 5715 5714 5713 5712 5711 5709 5707 5705 5703 5702 5701 5699 5697 5696 5694 5692 5691 5689 5688 5686 5685 5685 5685 5684 5684 5683 5683 5682 5682 5682 5682 5682 5683
5734 5732 5729 5726 5724 5722 5719 5716 5713 5710 5710 5710 5710 5709 5708 5706 5704 5703 5700 5699 5697 5695 5693 5692 5691 5688 5686 5686 5683 5679 5679 5680 5680 5679 5679 5678 5678 5677 5676 5676 5675 5675 5676
5732 5730 5728 5725 5723 5721 5719 5716 5713 5710 5708 5707 5707 5706 5705 5703 5702 5700 5698 5696 5694 5692 5690 5688 5687 5684 5683 5683 5679 5674 5670 5670 5673 5675 5674 5673 5672 5672 5670 5670 5669 5669 5670
5731 5729 5728 5725 5722 5720 5718 5715 5711 5708 5705 5703 5702 5701 5701 5700 5699 5697 5696 5694 5691 5689 5687 5685 5684 5682 5679 5679 5679 5674 5667 5663 5665 5667 5667 5667 5666 5666 5665 5664 5664 5663 5664
5731 5730 5727 5724 5721 5718 5716 5712 5708 5703 5698 5698 5698 5698 5698 5698 5696 5695 5693 5691 5689 5687 5685 5684 5683 5681 5679 5676 5675 5674 5672 5669 5662 5658 5660 5661 5661 5660 5659 5659 5658 5657 5657
5731 5729 5726 5722 5719 5716 5714 5711 5707 5702 5699 5698 5697 5695 5695 5694 5694 5692 5691 5689 5687 5685 5683 5682 5680 5679 5677 5675 5672 5671 5669 5666 5664 5658 5653 5653 5654 5654 5654 5653 5652 5652 5652
5728 5726 5723 5719 5716 5714 5712 5709 5705 5701 5698 5695 5693 5691 5690 5690 5690 5689 5688 5687 5685 5683 5681 5680 5678 5677 5675 5673 5672 5670 5667 5664 5661 5657 5652 5649 5648 5648 5648 5648 5647 5647 5647